Flag for U.S.A. Weather past 2 weeks in Annapolis, Maryland, U.S.A.

Now
86 °F

Sunny.


Feels Like: 92 °F
Forecast: 71 / 89 °F
Wind: 5 mph from North

Location: Annapolis - United States Naval Academy

Current Time: Sep 3, 2015 at 1:21:51 PM

Latest Report: Sep 3, 2015 at 12:54 PM


Visibility: 6 mi

Pressure: 29.90 "Hg

Humidity: 61%

Dew point: 71 °F

Location of AnnapolisLocation

Historic Weather in Annapolis — Graph

°F

Annapolis temperature yesterday

Maximum temperature yesterday: 86 °F (at 12:54 PM)
Minimum temperature yesterday: 76 °F (at 12:54 AM)
Average temperature yesterday: 80 °F

Past Weeks' High & Low Weather Summary

 TemperatureHumidityPressure
High86 °F (Sep 1, 12:54 PM)94% (Sep 2, 12:54 AM)30.22 "Hg (Sep 2, 12:54 AM)
Low65 °F (Aug 27, 5:54 AM)38% (Aug 22, 3:54 PM)29.82 "Hg (Aug 24, 6:54 PM)
Average76 °F68%30.03 "Hg
* Reported Aug 19 11:54 AM — Sep 3 11:54 AM, Annapolis, Weather by CustomWeather, © 2015

Note: Actual official high and low records may vary slightly from our data, if they occured in-between our weather recording intervals... More about our weather records

Advertising

Annapolis weather history for previous 24 hours

 ConditionsComfort  
Time TempWeatherWind HumidityBarometerVisibility
11:54 AM
Thu, Sep 3
86 °FSunny.No wind63%29.91 "Hg6 mi
10:54 AM83 °FSunny.3 mph68%29.92 "Hg6 mi
9:54 AM81 °FSunny.3 mph72%29.92 "Hg7 mi
8:54 AM78 °FSunny.3 mph76%29.92 "Hg6 mi
7:54 AM76 °FSunny.No wind82%29.92 "Hg6 mi
6:54 AM74 °FFog.3 mph88%29.90 "Hg6 mi
5:54 AM73 °FClear.3 mph84%29.89 "Hg8 mi
4:54 AM74 °FClear.5 mph85%29.89 "Hg8 mi
3:54 AM74 °FClear.3 mph85%29.88 "Hg8 mi
2:54 AM76 °FClear.5 mph82%29.89 "Hg8 mi
1:54 AM76 °FClear.5 mph85%29.91 "Hg8 mi
12:54 AM77 °FClear.5 mph82%29.92 "Hg7 mi
11:54 PM
Wed, Sep 2
76 °FClear.3 mph85%29.93 "Hg6 mi
10:54 PM77 °FClear.No wind85%29.93 "Hg7 mi
9:54 PM78 °FClear.No wind84%29.92 "Hg4 mi
8:54 PM79 °FClear.No wind77%29.93 "Hg7 mi
7:54 PM82 °FSunny.No wind70%29.92 "Hg8 mi
6:54 PM84 °FSunny.No wind67%29.90 "Hg7 mi
5:54 PM84 °FPassing clouds.5 mph70%29.93 "Hg7 mi
4:54 PM86 °FSunny.9 mph63%29.94 "Hg7 mi
3:54 PM84 °FSunny.10 mph70%29.94 "Hg7 mi
2:54 PM84 °FSunny.8 mph72%29.96 "Hg6 mi
1:54 PM83 °FSunny.7 mph77%29.99 "Hg6 mi
Weather by CustomWeather, © 2015

See weather overviewHow to use our weather pages